DateTimeUTC,F1_A11,F1_S11,BsB_S11,BsG_S11,BsR_S11,BbsB_S11,BbsG_S11,BbsR_S11,BaB_A11,BaG_A11,BaR_A11,Tu_S11,T_S11,Uu_S11,U_S11,P_S11,T1_A11
2021-01-08T22:00:00Z,00000200,21000000,,,,,,,0000.08,-000.40,-000.33,14.3,21.4,,00.0,0640.5,30.7
2021-01-08T22:01:00Z,00000200,21000000,,,,,,,0000.05,0000.01,0000.29,14.3,21.5,,00.0,0640.5,30.7
2021-01-08T22:02:00Z,00000200,21000000,,,,,,,0000.02,0000.07,-000.03,14.3,21.5,,00.0,0640.4,30.7
2021-01-08T22:03:00Z,00000200,61000000,,,,,,,-000.40,-000.24,-000.27,14.3,21.5,,00.0,0640.4,30.7
2021-01-08T22:04:00Z,00000200,41000000,0000.94,0000.63,0000.22,0000.29,0000.48,0000.15,0000.10,0000.08,0000.17,14.6,21.3,,00.0,0641.2,30.7
2021-01-08T22:05:00Z,00000200,01000000,0000.70,0000.73,0000.10,0000.15,0000.21,0000.18,0000.05,-000.00,0000.15,14.7,21.2,,00.0,0641.3,30.7
2021-01-08T22:06:00Z,00000200,01000000,0000.87,0000.22,0000.09,0000.10,0000.11,0000.08,0000.19,0000.32,-000.09,14.6,21.2,,00.0,0641.3,30.7
2021-01-08T22:07:00Z,00000200,01000000,0001.43,0000.49,0000.39,-000.01,0000.24,0000.00,0000.14,-000.15,0000.16,14.7,21.2,,00.0,0641.3,30.7
2021-01-08T22:08:00Z,00000200,01000000,0000.51,0000.52,0000.26,0000.94,-000.09,0000.16,0000.26,0000.34,0000.14,14.7,21.2,,00.0,0641.3,30.7
2021-01-08T22:09:00Z,00000200,01000000,0000.54,0000.28,0000.22,0000.36,0000.06,0000.09,-000.03,-000.02,0000.01,14.7,21.2,,00.0,0641.4,30.7
2021-01-08T22:10:00Z,00000200,01000000,0000.76,0000.52,0000.19,-000.08,-000.15,0000.16,0000.44,0000.09,0000.08,14.7,21.2,,00.0,0641.4,30.7
2021-01-08T22:11:00Z,00000200,01000000,0000.67,0000.19,0000.15,0000.16,0000.14,0000.15,-000.17,-000.02,-000.08,14.7,21.2,,00.0,0641.4,30.7
2021-01-08T22:12:00Z,00000200,01000000,0000.64,0000.19,0000.29,0000.41,0000.12,0000.09,0000.25,0000.08,0000.45,14.7,21.2,,00.0,0641.4,30.7
2021-01-08T22:13:00Z,00000200,01000000,0000.65,0000.10,0000.37,-000.40,-000.02,0000.20,0000.03,0000.22,-000.12,14.8,21.2,,00.0,0641.4,30.7
2021-01-08T22:14:00Z,00000200,01000000,0000.16,0000.66,-000.01,0000.27,0000.04,0000.14,0000.22,0000.12,0000.12,14.8,21.3,,00.0,0641.5,30.7
2021-01-08T22:15:00Z,00000200,01000000,0001.29,0000.43,-000.08,0000.65,0000.26,0000.17,-000.16,-000.06,-000.08,14.8,21.3,,00.0,0641.6,30.7
2021-01-08T22:16:00Z,00000200,01000000,0000.90,0000.39,0000.24,0000.83,0000.10,0000.02,0000.06,0000.12,-000.02,14.7,21.2,,00.0,0641.6,30.7
2021-01-08T22:17:00Z,00000200,01000000,0000.87,0000.42,0000.06,0000.75,0000.05,0000.39,0000.18,0000.14,0000.41,14.6,21.2,,00.0,0641.6,30.6
2021-01-08T22:18:00Z,00000200,01000000,0000.62,0000.42,-000.15,0000.18,0000.25,-000.02,0000.25,0000.06,-000.27,14.5,21.2,,00.0,0641.6,30.6
2021-01-08T22:19:00Z,00000200,01000000,0001.70,0000.46,0000.39,0000.37,0000.32,0000.01,-000.51,-000.31,0000.11,14.4,21.1,,00.0,0641.6,30.6
2021-01-08T22:20:00Z,00000200,01000000,0001.02,0000.34,0000.22,0000.70,0000.23,0000.26,0000.35,0000.03,-000.17,14.4,21.0,,00.0,0641.6,30.6
2021-01-08T22:21:00Z,00000200,01000000,0000.36,0000.26,0000.08,0000.06,0000.01,0000.23,0000.29,0000.47,-000.07,14.4,21.0,,00.0,0641.6,30.6
2021-01-08T22:22:00Z,00000200,01000000,0000.60,0000.41,0000.06,0000.44,0000.01,0000.02,-000.17,-000.19,0000.43,14.4,21.0,,00.0,0641.6,30.6
2021-01-08T22:23:00Z,00000200,01000000,0000.37,0000.42,0000.23,0000.39,-000.14,0000.22,0000.22,-000.05,-000.39,14.4,21.1,,00.0,0641.7,30.6
2021-01-08T22:24:00Z,00000200,01000000,0000.82,0000.39,0000.27,-000.46,0000.04,0000.31,-000.10,0000.20,0000.36,14.4,21.1,,00.0,0641.7,30.6
2021-01-08T22:25:00Z,00000200,01000000,0000.29,0000.36,0000.37,-000.19,0000.01,0000.04,0000.55,0000.21,0000.09,14.5,21.1,,00.0,0641.7,30.6
2021-01-08T22:26:00Z,00000200,01000000,0001.13,0000.38,0000.01,0000.45,0000.27,-000.09,-000.37,0000.07,-000.26,14.5,21.1,,00.0,0641.8,30.6
2021-01-08T22:27:00Z,00000200,01000000,0000.69,0000.48,0000.12,0000.50,0000.21,0000.18,0000.31,-000.10,0000.59,14.5,21.1,,00.0,0641.8,30.6
2021-01-08T22:28:00Z,00000200,01000000,0000.72,0000.45,0000.34,0000.36,-000.07,0000.09,-000.10,-000.01,-000.17,14.5,21.1,,00.0,0641.8,30.6
2021-01-08T22:29:00Z,00000200,01000000,0000.29,0000.22,-000.13,-000.05,-000.04,-000.02,0000.11,0000.35,0000.16,14.5,21.1,,00.0,0641.9,30.6
2021-01-08T22:30:00Z,00000200,01000000,0000.19,0000.53,0000.49,0000.32,0000.09,-000.13,-000.18,0000.01,-000.01,14.6,21.1,,00.0,0641.9,30.6
2021-01-08T22:31:00Z,00000200,01000000,0000.13,0000.31,0000.11,0000.82,0000.22,0000.23,0000.32,-000.45,-000.01,14.6,21.1,,00.0,0641.9,30.6
2021-01-08T22:32:00Z,00000200,01000000,0000.92,0000.42,0000.08,0000.10,0000.55,0000.20,0000.16,0000.42,-000.08,14.5,21.1,,00.0,0641.9,30.6
2021-01-08T22:33:00Z,00000200,01000000,0000.93,0000.47,0000.24,0000.50,0000.26,0000.08,-000.35,-000.15,0000.03,14.5,21.0,,00.0,0641.9,30.6
2021-01-08T22:34:00Z,00000200,01000000,0001.20,0000.57,0000.18,0000.13,-000.03,0000.05,0000.17,-000.17,-000.21,14.4,21.0,,00.0,0642.0,30.6
2021-01-08T22:35:00Z,00000200,01000000,0000.53,0000.56,0000.23,-000.15,0000.16,0000.21,0000.16,0000.44,0000.21,14.3,21.0,,00.0,0642.0,30.6
2021-01-08T22:36:00Z,00000200,01000000,0000.91,0000.14,0000.14,0000.22,-000.05,-000.02,0000.18,0000.03,0000.13,14.3,20.9,,00.0,0642.0,30.6
2021-01-08T22:37:00Z,00000200,01000000,0000.99,0000.63,0000.17,0000.35,0000.06,-000.15,0000.08,0000.17,0000.15,14.3,21.0,,00.0,0642.0,30.6
2021-01-08T22:38:00Z,00000200,01000000,0000.11,0000.53,0000.34,0000.52,0000.21,0000.09,0000.05,0000.17,-000.13,14.3,20.9,,00.0,0642.0,30.6
2021-01-08T22:39:00Z,00000200,01000000,0000.66,0000.29,0000.30,0000.12,-000.07,0000.13,0000.10,-000.01,0000.20,14.4,21.0,,00.0,0642.0,30.6
2021-01-08T22:40:00Z,00000200,01000000,0000.38,0000.30,0000.15,-000.12,0000.23,-000.11,0000.12,-000.14,0000.29,14.4,21.0,,00.0,0642.0,30.6
2021-01-08T22:41:00Z,00000200,01000000,0000.68,0000.65,-000.02,-000.31,0000.12,-000.02,0000.26,0000.44,0000.03,14.4,21.0,,00.0,0641.9,30.6
2021-01-08T22:42:00Z,00000200,01000000,-000.09,0000.34,0000.07,0000.39,0000.21,0000.04,-000.00,-000.27,-000.00,14.4,21.0,,00.0,0641.9,30.6
2021-01-08T22:43:00Z,00000200,01000000,0000.15,0000.36,0000.30,0000.05,0000.09,0000.31,0000.21,0000.82,0000.28,14.5,21.0,,00.0,0641.9,30.6
2021-01-08T22:44:00Z,00000200,01000000,0000.44,0000.36,0000.13,-000.08,0000.09,-000.04,-000.05,-000.33,-000.59,14.5,21.0,,00.0,0641.9,30.6
2021-01-08T22:45:00Z,00000200,01000000,0000.77,0000.71,0000.06,0000.02,-000.04,-000.06,0000.06,-000.27,0000.53,14.5,21.0,,00.0,0641.9,30.6
2021-01-08T22:46:00Z,00000200,01000000,0000.63,0000.71,0000.12,0000.46,0000.06,-000.16,-000.06,-000.04,-000.23,14.5,21.0,,00.0,0641.8,30.6
2021-01-08T22:47:00Z,00000200,01000000,0001.10,0000.51,-000.02,-000.12,0000.05,0000.17,0000.11,0000.38,-000.01,14.4,21.0,,00.0,0641.8,30.6
2021-01-08T22:48:00Z,00000200,01000000,0000.68,0000.22,0000.21,0000.64,0000.11,-000.15,-000.09,-000.03,0000.01,14.3,20.9,,00.0,0641.8,30.6
2021-01-08T22:49:00Z,00000200,01000000,0000.70,0000.28,0000.23,0000.20,0000.08,0000.11,0000.10,-000.20,-000.01,14.2,20.9,,00.0,0641.8,30.6
2021-01-08T22:50:00Z,00000200,01000000,0000.50,0000.50,0000.11,0000.11,0000.04,0000.08,0000.33,0000.10,0000.16,14.2,20.8,,00.0,0641.8,30.6
2021-01-08T22:51:00Z,00000200,01000000,0000.79,0000.59,0000.07,0000.10,0000.08,-000.02,0000.02,0000.16,0000.07,14.2,20.8,,00.0,0641.8,30.6
2021-01-08T22:52:00Z,00000200,01000000,0000.36,0000.06,0000.23,0000.61,0000.21,0000.02,0000.12,0000.20,0000.19,14.2,20.8,,00.0,0641.8,30.6
2021-01-08T22:53:00Z,00000200,01000000,0000.93,0000.71,0000.30,-000.35,0000.04,-000.02,0000.04,0000.34,-000.00,14.2,20.8,,00.0,0641.8,30.6
2021-01-08T22:54:00Z,00000200,01000000,0000.91,0000.09,0000.25,0000.04,0000.04,0000.30,0000.15,-000.08,-000.02,14.2,20.8,,00.0,0641.8,30.6
2021-01-08T22:55:00Z,00000200,01000000,0000.83,0000.61,0000.15,0000.39,-000.04,0000.35,0000.21,0000.43,0000.15,14.3,20.8,,00.0,0641.8,30.6
2021-01-08T22:56:00Z,00000200,01000000,0000.62,0000.59,0000.35,-000.17,0000.00,-000.07,0000.05,-000.08,0000.61,14.3,20.9,,00.0,0641.8,30.6
2021-01-08T22:57:00Z,00000200,41000000,,,,,,,0000.59,0000.74,0000.31,14.3,20.9,,00.0,0641.6,30.6
2021-01-08T22:58:00Z,00000200,61000000,,,,,,,-000.24,-000.33,0000.05,13.9,21.1,,00.0,0640.8,30.6
2021-01-08T22:59:00Z,00000200,21000000,,,,,,,-000.04,-000.06,-000.51,13.9,21.2,,00.0,0640.8,30.6
